Location: Ecklingerode
(51.5036°N, 10.3122°E)
Time: 13:15:31
(UTC+00:00)

Meteor 2-10 Rocket - Pass Details

Date: 29 October 2020
Orbit: 733 x 885 km, 81.2° (Epoch: 28 November)

Event Time Altitude Azimuth Distance (km) Brightness Sun altitude
Rises 17:49:27 0° 188° (S) 3,285 6.9 -18.0°
Reaches altitude 10° 17:51:51 10° 187° (S) 2,337 6.1 -18.4°
Maximum altitude 17:57:06 82° 101° (E) 777 3.4 -19.2°
Drops below altitude 10° 18:02:12 10° 14° (NNE) 2,275 5.8 -20.0°
Sets 18:04:31 0° 14° (NNE) 3,192 6.6 -20.4°
